Regional Weather Roundup
Issued by NWS Northern Indiana

Home | Current Version | Previous Version | Text Only | Print | Product List | Glossary Off
Versions: 1 2 3 4 5 6 7 8 9 10 11 12 13 14 15 16 17 18 19 20 21 22 23 24 25 26 27 28 29 30 31 32 33 34 35 36 37 38 39 40 41 42 43 44 45 46 47 48 49 50

000
ASUS43 KIWX 221210
RWRIWX

KIWX WEATHER ROUNDUP
NATIONAL WEATHER SERVICE NORTHERN INDIANA
700 AM EST WED FEB 22 2017

NOTE: "FAIR" INDICATES FEW OR NO CLOUDS BELOW 12,000 FEET WITH NO
SIGNIFICANT WEATHER AND/OR OBSTRUCTIONS TO VISIBILITY.

* THESE STATIONS ARE NOT UNDER NWS QUALITY CONTROL. THEY ALSO MAY NOT
  REPORT WEATHER SUCH AS PRECIPITATION OR FOG.

INZ001>027-221300-
NORTHERN INDIANA

CITY           SKY/WX    TMP DP  RH WIND       PRES   REMARKS
GARY*          CLOUDY    55  52  88 S7        29.85S FOG
VALPARAISO     CLOUDY    51  50  96 S3        29.86F FOG
6HR MIN TEMP:  48; 6HR MAX TEMP:  52;

MICHIGAN CITY* CLOUDY    52  52 100 S8        29.86R
LAPORTE*       CLOUDY    49  49  98 SW5       29.87S FOG
6HR MIN TEMP:  41; 6HR MAX TEMP:  50;

KNOX*          CLOUDY    50  39  66 SW6       29.87S
SOUTH BEND     CLEAR     49  48  97 SW6       29.87R FOG
6HR MIN TEMP:  41; 6HR MAX TEMP:  50;

ELKHART*       CLEAR     50  48  93 SW5       29.86  FOG
GOSHEN         PTCLDY    51  48  89 S7        29.87R FOG
6HR MIN TEMP:  47; 6HR MAX TEMP:  53;

MONTICELLO*    CLOUDY    53  51  94 S5        29.87F
6HR MIN TEMP:  50; 6HR MAX TEMP:  54;

LOGANSPORT*    CLOUDY    50  50 100 S3        29.89S FOG
ROCHESTER*     MOCLDY    55  54  94 SW7       29.88S FOG
WARSAW*        MOCLDY    52  52 100 SW3       29.87F FOG
ANGOLA*        MOCLDY    52  52 100 SW5       29.88R
FORT WAYNE     CLOUDY    52  50  93 S6        29.90S FOG
6HR MIN TEMP:  48; 6HR MAX TEMP:  54;

HUNTINGTON*    FOG       49  48  96 CALM      29.89F VSB 3/4
6HR MIN TEMP:  46; 6HR MAX TEMP:  54;

PERU/GRISSOM   FOG       50  50 100 CALM      29.87F VSB 1/8
MARION*        CLOUDY    52  52 100 S6        29.90F FOG
6HR MIN TEMP:  -6; 6HR MAX TEMP:  89;


$$
INZ028>050-221300-
CENTRAL INDIANA

CITY           SKY/WX    TMP DP  RH WIND       PRES   REMARKS
LAFAYETTE      FOG       49  49 100 CALM      29.88S VSB 1/4
6HR MIN TEMP:  47; 6HR MAX TEMP:  55;

KOKOMO*        FOG       51  51 100 S5        29.89F VSB 1/4
6HR MIN TEMP:  47; 6HR MAX TEMP:  53;

MUNCIE*        CLOUDY    57  54  89 SW6       29.90S
6HR MIN TEMP:  56; 6HR MAX TEMP:  58;

INDIANAPOLIS   CLOUDY    55  53  93 S6        29.89F
6HR MIN TEMP:  52; 6HR MAX TEMP:  56;


$$
MIZ043>046-050>051-056>058-064>065-071>073-077>080-221300-
SOUTHWEST LOWER MICHIGAN

CITY           SKY/WX    TMP DP  RH WIND       PRES   REMARKS
BATTLE CREEK   CLOUDY    49  48  97 SW7       29.85F FOG
6HR MIN TEMP:  41; 6HR MAX TEMP:  49;

BENTON HARBOR  CLOUDY    53  50  89 S5        29.84S FOG
6HR MIN TEMP:  42; 6HR MAX TEMP:  53;

COLDWATER*     MOCLDY    47  47 100 CALM      29.86S FOG
6HR MIN TEMP:  42; 6HR MAX TEMP:  51;

HILLSDALE*     PTCLDY    46  46 100 S6        29.87R FOG
HOLLAND        CLOUDY    50  48  93 S7        29.82F FOG
6HR MIN TEMP:  46; 6HR MAX TEMP:  51;

GRAND RAPIDS   MOCLDY    50  47  89 S10       29.82F FOG
6HR MIN TEMP:  42; 6HR MAX TEMP:  50;

KALAMAZOO      CLOUDY    49  46  90 S5        29.86S FOG
6HR MIN TEMP:  45; 6HR MAX TEMP:  49;

STURGIS*       MOCLDY    49  49  99 SW6       29.86R FOG
6HR MIN TEMP:  44; 6HR MAX TEMP:  49;

THREE RIVERS*  MOCLDY    45  45 100 CALM      29.87R FOG
6HR MIN TEMP:  40; 6HR MAX TEMP:  47;


$$
OHZ001>008-015>018-024>025-221300-
NORTHWEST OHIO

CITY           SKY/WX    TMP DP  RH WIND       PRES   REMARKS
WAUSEON*       MOCLDY    52  52 100 SW7       29.88F FOG
DEFIANCE       CLOUDY    51  49  92 S6        29.89F
6HR MIN TEMP:  47; 6HR MAX TEMP:  53;

FINDLAY        CLOUDY    54  50  86 S7        29.90R FOG
6HR MIN TEMP:  50; 6HR MAX TEMP:  55;

TOLEDO EXPRESS CLOUDY    53  52  96 SW8       29.89S
6HR MIN TEMP:  42; 6HR MAX TEMP:  54; 6HR PCP: TRACE;

TOLEDO METCALF CLOUDY    52  51  97 SW7       29.90S FOG
6HR MIN TEMP:  44; 6HR MAX TEMP:  53;

LIMA           CLOUDY    54  53  97 S6        29.91S FOG
6HR MIN TEMP:  53; 6HR MAX TEMP:  55; 6HR PCP: TRACE;


$$
AND FOR LAKE MICHIGAN COASTAL AND OPEN LAKE BUOY OBSERVATIONS

STATION/POSITION TEMP    WIND        PRES    VSBY  WAVE
                 AIR SEA DIR/SP/G                  HT/PER
                 (F)     (DEG/KT/KT) (MB)    (MI)  (FT/S)
CALUMET HARBOR    54     190/  8/ 10 1009.6F
MICHIGAN CITY     53     170/  7/  9   N/A
BURNS HARBOR      54     180/  9/ 14 1010.8

$$
&&




USA.gov is the U.S. government's official web portal to all federal, state and local government web resources and services.